TimeCDT,TemperatureF,Dew PointF,Humidity,Sea Level PressureIn,VisibilityMPH,Wind Direction,Wind SpeedMPH,Gust SpeedMPH,PrecipitationIn,Events,Conditions,WindDirDegrees,DateUTC
12:15 AM,37.4,35.6,93,29.98,10.0,Calm,Calm,-,N/A,,Clear,0,2012-09-19 05:15:00
12:55 AM,37.4,35.6,93,29.98,10.0,WNW,3.5,-,N/A,,Clear,290,2012-09-19 05:55:00
1:15 AM,37.4,35.6,93,29.98,10.0,WNW,3.5,-,N/A,,Clear,290,2012-09-19 06:15:00
1:35 AM,35.6,35.6,100,29.98,10.0,Calm,Calm,-,N/A,,Clear,0,2012-09-19 06:35:00
1:55 AM,35.6,35.6,100,29.98,10.0,West,3.5,-,N/A,,Clear,280,2012-09-19 06:55:00
2:15 AM,35.6,35.6,100,29.98,10.0,WNW,3.5,-,N/A,,Clear,290,2012-09-19 07:15:00
2:35 AM,35.6,33.8,93,29.98,10.0,WNW,3.5,-,N/A,,Clear,290,2012-09-19 07:35:00
2:55 AM,35.6,33.8,93,29.97,10.0,Calm,Calm,-,N/A,,Clear,0,2012-09-19 07:55:00
3:15 AM,35.6,33.8,93,29.98,10.0,Calm,Calm,-,N/A,,Clear,0,2012-09-19 08:15:00
3:35 AM,35.6,33.8,93,29.98,10.0,Calm,Calm,-,N/A,,Clear,0,2012-09-19 08:35:00
3:55 AM,35.6,33.8,93,29.98,10.0,Calm,Calm,-,N/A,,Clear,0,2012-09-19 08:55:00
4:15 AM,33.8,33.8,100,29.98,10.0,WSW,3.5,-,N/A,,Clear,240,2012-09-19 09:15:00
4:55 AM,35.6,33.8,93,29.98,10.0,West,3.5,-,N/A,,Clear,280,2012-09-19 09:55:00
5:15 AM,35.6,35.6,100,29.98,10.0,West,5.8,-,N/A,,Clear,270,2012-09-19 10:15:00
5:35 AM,35.6,33.8,93,29.98,10.0,West,4.6,-,N/A,,Clear,260,2012-09-19 10:35:00
5:55 AM,35.6,33.8,93,29.98,10.0,WSW,3.5,-,N/A,,Clear,250,2012-09-19 10:55:00
6:15 AM,35.6,35.6,100,29.97,10.0,WSW,5.8,-,N/A,,Scattered Clouds,240,2012-09-19 11:15:00
6:35 AM,37.4,35.6,93,29.97,10.0,SW,6.9,-,N/A,,Mostly Cloudy,230,2012-09-19 11:35:00
6:55 AM,39.2,35.6,87,29.96,10.0,SW,6.9,-,N/A,,Overcast,230,2012-09-19 11:55:00
7:15 AM,39.2,35.6,87,29.95,10.0,SW,4.6,-,N/A,,Overcast,220,2012-09-19 12:15:00
7:35 AM,39.2,37.4,93,29.95,10.0,SW,5.8,-,N/A,,Overcast,220,2012-09-19 12:35:00
7:55 AM,39.2,39.2,100,29.95,10.0,WSW,3.5,-,N/A,,Overcast,250,2012-09-19 12:55:00
8:15 AM,41.0,39.2,93,29.94,10.0,Calm,Calm,-,N/A,,Overcast,0,2012-09-19 13:15:00
8:35 AM,42.8,39.2,87,29.94,10.0,Calm,Calm,-,N/A,,Overcast,0,2012-09-19 13:35:00
8:55 AM,44.6,39.2,81,29.93,10.0,South,6.9,-,N/A,,Overcast,180,2012-09-19 13:55:00
9:15 AM,48.2,37.4,66,29.90,10.0,South,10.4,19.6,N/A,,Overcast,190,2012-09-19 14:15:00
9:55 AM,51.8,37.4,58,29.90,10.0,South,12.7,17.3,N/A,,Overcast,190,2012-09-19 14:55:00
10:15 AM,51.8,35.6,54,29.89,10.0,SSW,16.1,21.9,N/A,,Overcast,200,2012-09-19 15:15:00
10:35 AM,53.6,33.8,47,29.87,10.0,South,15.0,26.5,N/A,,Overcast,190,2012-09-19 15:35:00
10:55 AM,55.4,32.0,41,29.87,10.0,South,15.0,27.6,N/A,,Overcast,190,2012-09-19 15:55:00
11:15 AM,55.4,32.0,41,29.86,10.0,SSW,19.6,26.5,N/A,,Overcast,200,2012-09-19 16:15:00
11:35 AM,53.6,33.8,47,29.87,10.0,SSW,15.0,23.0,N/A,,Overcast,210,2012-09-19 16:35:00
11:55 AM,53.6,33.8,47,29.86,10.0,SSW,11.5,18.4,N/A,,Overcast,200,2012-09-19 16:55:00
12:15 PM,57.2,37.4,48,29.85,10.0,SSW,15.0,21.9,N/A,,Overcast,200,2012-09-19 17:15:00
12:35 PM,55.4,39.2,54,29.84,10.0,SSW,10.4,18.4,N/A,,Mostly Cloudy,210,2012-09-19 17:35:00
12:55 PM,59.0,39.2,48,29.81,10.0,SSW,18.4,27.6,N/A,,Partly Cloudy,200,2012-09-19 17:55:00
1:15 PM,60.8,39.2,45,29.81,10.0,SSW,16.1,24.2,N/A,,Partly Cloudy,200,2012-09-19 18:15:00
1:35 PM,60.8,39.2,45,29.80,10.0,SSW,19.6,27.6,N/A,,Mostly Cloudy,210,2012-09-19 18:35:00
1:55 PM,60.8,39.2,45,29.80,10.0,SW,13.8,25.3,N/A,,Mostly Cloudy,220,2012-09-19 18:55:00
2:15 PM,62.6,42.8,48,29.79,10.0,SSW,20.7,26.5,N/A,,Mostly Cloudy,210,2012-09-19 19:15:00
2:35 PM,60.8,39.2,45,29.71,10.0,South,17.3,24.2,N/A,,Mostly Cloudy,170,2012-09-19 19:35:00
2:55 PM,60.8,41.0,48,29.72,10.0,SSW,20.7,31.1,N/A,,Mostly Cloudy,200,2012-09-19 19:55:00
3:15 PM,62.6,42.8,48,29.72,10.0,South,20.7,32.2,N/A,,Partly Cloudy,190,2012-09-19 20:15:00
3:35 PM,60.8,41.0,48,29.71,10.0,South,17.3,31.1,N/A,,Partly Cloudy,180,2012-09-19 20:35:00
3:55 PM,60.8,44.6,55,29.69,10.0,South,10.4,19.6,N/A,,Scattered Clouds,190,2012-09-19 20:55:00
4:15 PM,60.8,44.6,55,29.68,10.0,South,13.8,21.9,N/A,,Partly Cloudy,180,2012-09-19 21:15:00
4:35 PM,62.6,44.6,52,29.69,10.0,South,10.4,17.3,N/A,,Mostly Cloudy,190,2012-09-19 21:35:00
4:55 PM,60.8,46.4,59,29.69,10.0,South,9.2,-,N/A,,Mostly Cloudy,190,2012-09-19 21:55:00
5:15 PM,62.6,44.6,52,29.70,10.0,SSW,5.8,-,N/A,,Mostly Cloudy,210,2012-09-19 22:15:00
5:35 PM,62.6,46.4,55,29.68,10.0,South,15.0,-,N/A,,Mostly Cloudy,190,2012-09-19 22:35:00
5:55 PM,62.6,46.4,55,29.66,9.0,South,11.5,19.6,N/A,,Mostly Cloudy,190,2012-09-19 22:55:00
6:15 PM,62.6,48.2,59,29.66,10.0,South,13.8,19.6,N/A,,Overcast,190,2012-09-19 23:15:00
6:35 PM,62.6,48.2,59,29.64,10.0,South,13.8,21.9,N/A,,Overcast,180,2012-09-19 23:35:00
6:55 PM,62.6,48.2,59,29.63,10.0,South,12.7,23.0,N/A,,Mostly Cloudy,190,2012-09-19 23:55:00
7:15 PM,62.6,48.2,59,29.63,10.0,South,11.5,18.4,N/A,,Overcast,190,2012-09-20 00:15:00
7:35 PM,62.6,48.2,59,29.63,10.0,SSW,11.5,17.3,N/A,,Overcast,200,2012-09-20 00:35:00
7:55 PM,60.8,51.8,72,29.65,9.0,West,5.8,-,0.01,Thunderstorm,Thunderstorm,270,2012-09-20 00:55:00
8:15 PM,59.0,53.6,82,29.66,10.0,SW,12.7,19.6,0.02,Thunderstorm,Thunderstorm,220,2012-09-20 01:15:00
8:35 PM,57.2,51.8,82,29.72,9.0,NNW,17.3,40.3,0.06,Thunderstorm,Thunderstorm,330,2012-09-20 01:35:00
8:55 PM,51.8,48.2,88,29.72,10.0,NNW,8.1,17.3,0.08,,Overcast,330,2012-09-20 01:55:00
9:15 PM,51.8,48.2,88,29.69,10.0,NNW,8.1,-,N/A,,Mostly Cloudy,340,2012-09-20 02:15:00
9:35 PM,50.0,46.4,87,29.68,10.0,SW,4.6,-,N/A,,Scattered Clouds,220,2012-09-20 02:35:00
9:55 PM,48.2,46.4,93,29.68,10.0,SW,3.5,-,N/A,,Scattered Clouds,230,2012-09-20 02:55:00
10:15 PM,48.2,46.4,93,29.70,10.0,WSW,4.6,-,N/A,,Mostly Cloudy,250,2012-09-20 03:15:00
10:35 PM,48.2,46.4,93,29.71,10.0,SW,5.8,-,N/A,,Partly Cloudy,230,2012-09-20 03:35:00
10:55 PM,48.2,46.4,93,29.72,10.0,SW,9.2,-,N/A,,Clear,230,2012-09-20 03:55:00
11:35 PM,48.2,46.4,93,29.73,10.0,SW,8.1,-,N/A,,Clear,230,2012-09-20 04:35:00
11:55 PM,48.2,46.4,93,29.73,10.0,WSW,5.8,-,N/A,,Clear,240,2012-09-20 04:55:00